Wind_Speed
8 7 8 8 9 7 4 4 2 3 2 1 1 1 3 2 2 3 3 3 1 2 3 1 2 2 2 2 4 5 3 4 4 5 3 3 12 20 20 17 16 15 14 12 9 6 4 6 7 6 7 7 7 7 7 7 8 8 9 9 9 9 9 10 9 10 9 10 10 10 10 10 10 10 10 10 10 11 11 11 11 11 11 12 12 12 12 12 13 12 12 12 12 12 12 12 12
8 8 9 9 7 3 1 3 2 3 3 0 2 3 3 1 2 5 7 6 4 3 3 2 3 3 3 4 3 2 1 1 1 3 1 9 15 17 20 18 17 16 15 12 9 5 2 5 8 7 7 7 7 7 7 7 8 8 9 9 9 9 10 10 10 10 10 10 10 9 10 10 10 10 10 10 10 10 10 11 11 11 11 11 11 12 12 12 13 13 12 12 12 12 12 12 12
9 10 10 7 4 3 1 3 2 0 3 2 4 3 3 4 5 6 7 6 4 5 3 2 2 2 5 4 1 1 3 2 2 3 3 15 15 17 22 18 18 16 14 12 9 6 4 7 9 8 8 7 7 7 7 7 8 9 9 9 10 10 10 10 10 10 10 10 10 9 9 10 9 10 10 9 9 9 10 10 11 11 11 11 11 11 11 12 12 12 12 12 12 12 12 12 12
10 12 10 5 3 3 3 3 2 4 2 3 3 4 4 6 6 5 5 5 5 5 3 2 1 1 4 1 2 1 3 2 6 7 5 18 18 21 25 19 19 15 14 13 9 7 6 10 10 9 8 8 8 7 7 7 7 8 9 9 9 10 10 10 10 10 10 10 10 10 9 9 9 9 10 9 9 9 9 10 10 10 10 10 10 11 11 11 12 12 12 12 12 12 12 12 12
10 11 7 4 2 1 3 2 2 4 3 4 2 5 5 6 6 5 3 3 3 3 3 3 1 2 1 3 2 1 4 1 7 10 8 20 20 23 26 21 20 16 16 13 10 8 8 12 10 10 9 8 8 7 7 7 7 7 8 8 9 9 9 10 10 10 10 10 10 10 10 10 10 10 9 9 9 9 9 9 10 10 10 11 10 11 11 11 11 12 12 12 12 12 12 12 13
9 8 4 4 1 1 2 1 1 2 5 5 3 5 5 6 7 7 3 2 2 1 3 3 2 1 1 2 1 2 5 2 7 10 10 20 21 25 26 22 21 17 16 14 11 9 10 12 10 10 9 8 8 7 7 6 7 6 7 7 7 8 8 9 10 10 11 11 11 11 10 10 10 10 9 9 8 9 9 9 10 10 11 11 11 11 11 11 11 11 12 12 12 12 12 12 13
9 5 3 3 1 1 3 3 4 3 3 5 4 4 6 6 7 8 5 2 1 2 1 2 2 3 2 2 0 2 3 3 7 8 12 21 25 27 25 23 21 19 17 15 13 9 11 12 10 10 8 8 7 7 7 6 6 5 5 6 6 7 7 8 9 9 10 11 12 12 11 10 10 10 9 9 9 9 9 9 10 10 11 11 11 11 11 11 11 11 12 12 12 12 12 12 13
6 1 2 3 1 2 3 2 3 4 1 2 3 3 7 9 7 8 7 4 2 2 1 2 1 2 4 1 1 2 3 5 4 7 15 22 27 28 25 25 22 20 18 16 14 10 11 12 10 9 8 8 7 7 6 6 5 5 5 5 6 6 6 6 7 8 10 11 13 13 13 11 10 9 9 9 9 9 9 9 10 11 12 12 11 11 11 12 11 11 12 11 11 12 12 13 13
3 1 1 3 1 2 2 0 2 3 2 2 1 3 6 8 8 7 7 3 2 3 3 4 4 2 4 0 3 4 2 7 6 10 19 22 27 28 26 25 22 21 19 16 15 12 11 11 10 8 7 7 6 6 5 4 4 4 4 4 5 5 6 5 6 7 9 11 13 14 14 13 12 11 10 9 9 9 10 10 11 12 13 12 11 11 12 12 12 11 12 11 11 12 12 13 13
3 2 1 1 1 0 2 2 2 2 2 2 2 4 7 7 6 6 7 4 3 4 4 3 3 3 2 2 4 3 3 9 12 16 21 23 26 28 27 25 21 20 19 17 16 14 11 11 10 8 6 6 5 5 4 3 2 2 2 2 2 3 4 4 4 6 7 9 11 12 13 14 14 13 11 9 9 10 10 11 11 12 13 12 11 11 12 12 12 11 11 11 11 11 12 13 13
2 4 2 2 2 1 2 3 3 2 2 2 1 4 7 7 6 4 5 3 3 4 2 3 2 4 1 2 3 1 7 14 18 21 22 24 26 27 26 24 22 19 18 17 16 15 12 10 10 8 7 5 5 5 4 3 2 1 1 1 1 2 2 3 3 5 6 8 10 11 12 14 15 14 11 9 9 10 10 10 11 12 13 12 12 11 12 12 12 12 12 11 11 11 12 13 12
2 3 3 2 1 3 3 4 3 3 3 1 2 4 5 7 6 4 6 4 4 4 4 5 4 4 2 3 3 0 12 20 19 21 23 26 26 25 24 23 22 19 17 16 16 15 13 12 11 10 9 7 6 6 5 5 4 4 3 3 3 3 3 3 3 4 5 7 8 9 11 13 14 13 12 10 9 9 9 9 10 11 12 12 12 12 13 12 12 12 12 11 11 11 12 12 11
2 1 5 2 3 3 3 4 3 1 3 4 4 4 6 7 5 7 7 4 6 5 6 8 4 3 3 3 2 1 11 20 20 21 24 26 26 25 24 23 22 20 18 16 16 16 15 14 13 12 11 10 9 8 8 7 7 6 6 5 5 5 5 5 4 4 5 6 7 8 10 11 12 12 13 13 11 11 10 9 9 9 11 12 12 12 13 12 12 12 12 12 11 11 12 12 11
2 3 4 1 0 2 4 2 2 3 3 5 3 4 6 4 5 7 7 5 8 7 4 8 7 2 3 1 1 3 10 20 21 22 24 25 25 24 23 22 22 21 19 18 18 17 16 15 14 13 13 12 12 11 10 10 10 9 8 8 7 7 7 6 6 5 6 6 7 8 9 10 10 10 12 13 13 14 13 12 10 9 10 12 12 12 12 12 12 12 12 12 11 11 12 11 11
3 2 4 2 2 2 3 1 3 4 4 5 3 5 5 2 3 5 6 7 8 5 2 5 6 2 3 4 4 6 16 24 23 24 25 25 25 24 23 22 23 22 21 20 19 18 18 17 16 15 15 14 14 13 13 12 12 12 11 10 9 9 9 9 8 7 7 8 8 8 9 9 10 10 11 12 13 14 14 14 13 10 10 11 11 11 12 11 11 11 12 12 11 11 12 11 12
3 3 4 2 1 0 3 2 3 3 5 5 3 5 5 3 2 3 5 5 3 2 2 4 5 3 4 7 5 8 21 26 24 25 25 24 24 23 23 22 21 22 22 21 20 20 19 18 17 16 17 16 16 16 15 14 14 14 13 12 11 11 11 11 10 10 10 9 9 9 10 10 10 11 11 12 13 13 14 15 14 12 10 10 11 11 11 11 11 11 12 11 10 11 12 12 14
3 4 4 1 1 3 4 3 4 4 4 4 3 5 7 4 1 1 1 3 2 2 2 4 4 1 3 5 3 7 23 28 25 26 24 24 24 23 23 22 21 22 23 22 22 21 20 20 19 18 18 18 18 17 17 17 16 16 16 15 13 13 13 13 12 12 12 11 11 11 11 12 12 12 12 12 13 13 14 14 14 13 11 10 10 10 10 10 11 11 11 10 10 11 11 14 16
4 3 3 1 3 4 5 6 5 3 2 5 5 6 8 4 3 1 1 1 1 2 3 4 4 2 0 3 4 14 27 29 28 28 25 25 23 22 23 24 25 26 26 25 25 24 23 22 21 20 20 19 19 19 19 19 19 18 18 17 16 15 14 14 14 13 13 13 13 13 13 14 13 13 13 13 14 14 13 13 13 13 12 11 11 11 11 11 10 10 10 10 11 11 12 15 16
4 3 2 3 5 4 4 5 5 3 3 6 6 5 7 6 4 2 2 4 2 4 5 3 5 4 2 4 12 22 29 30 30 29 26 25 25 25 24 25 27 28 28 28 27 26 25 24 22 21 20 20 20 21 21 21 21 20 20 19 18 17 16 16 16 15 15 15 15 15 15 15 15 15 15 15 15 14 14 13 13 13 12 12 12 12 12 11 10 10 10 10 11 13 14 15 15
2 4 2 5 6 3 3 4 5 5 4 6 5 4 4 5 4 3 4 4 3 6 7 4 7 8 4 5 14 23 27 28 28 28 26 26 27 27 26 26 28 30 30 28 26 25 25 24 23 22 21 20 21 21 22 22 22 22 22 21 20 19 18 18 17 17 17 17 17 17 16 17 17 17 16 16 16 16 15 14 14 14 13 13 14 14 13 11 10 10 10 11 13 15 14 14 15
1 3 4 6 3 3 5 6 5 4 4 7 4 3 3 4 3 2 4 2 6 7 8 9 10 10 8 6 12 20 22 23 24 25 25 25 26 26 27 29 30 28 26 25 25 25 24 24 23 22 22 22 22 22 22 22 22 23 23 22 21 20 20 19 19 18 18 19 19 18 18 18 18 18 18 18 18 17 17 16 16 15 15 14 14 15 13 11 11 11 11 12 13 15 14 14 15
2 1 4 5 4 2 6 5 4 2 2 4 4 3 3 1 1 3 6 6 7 6 8 10 11 9 11 11 13 16 17 19 21 22 23 24 25 25 26 27 27 26 24 24 24 23 22 23 23 22 22 23 23 23 23 23 23 24 24 23 22 22 21 20 20 20 20 20 20 20 19 20 20 19 19 19 19 19 18 18 17 17 17 16 15 15 14 11 11 11 12 12 13 14 14 15 16
1 3 2 4 4 3 3 3 2 1 5 4 5 3 1 1 4 4 8 11 9 6 6 9 10 10 14 15 14 12 12 15 19 23 25 25 26 27 27 27 26 25 24 24 22 21 20 21 22 22 22 23 24 24 24 24 24 25 24 24 24 23 23 22 22 22 21 21 21 21 21 22 22 21 21 21 20 20 20 19 19 18 18 17 16 16 15 13 12 12 13 13 13 15 16 17 18
3 2 3 3 4 4 3 3 2 3 4 4 3 1 1 3 4 2 6 13 10 7 5 6 5 7 14 14 13 13 14 17 21 27 29 28 30 29 27 26 25 23 23 23 21 20 20 20 20 22 22 23 23 23 24 24 25 25 25 25 25 24 24 24 23 22 22 23 22 22 22 23 23 23 23 22 22 21 21 21 20 20 19 19 17 17 16 15 13 13 14 14 14 16 18 19 20
3 3 3 1 1 2 2 2 1 1 2 2 1 2 6 6 2 4 11 14 8 8 6 4 4 7 12 12 12 13 13 18 21 23 25 25 26 25 25 24 23 22 22 21 19 19 19 18 19 20 21 22 21 22 23 24 24 24 25 25 25 25 25 25 24 23 23 23 23 23 24 24 24 24 24 24 23 23 23 22 21 21 20 20 19 18 17 16 16 14 15 16 16 17 19 20 21
2 3 3 2 2 3 2 2 2 2 2 2 1 6 8 5 2 6 13 13 7 6 6 5 6 7 8 9 11 12 11 15 18 19 21 22 21 21 24 23 21 21 21 20 19 19 18 17 18 19 20 20 20 21 22 23 23 24 25 25 25 25 26 25 24 23 24 24 24 24 25 25 25 25 25 25 24 25 24 23 23 22 22 21 21 20 19 18 17 16 16 17 18 19 20 21 22
2 3 3 1 2 3 3 3 4 2 2 3 4 7 7 4 2 4 9 8 3 4 6 6 7 8 8 7 9 12 12 15 19 19 18 17 18 21 23 22 21 20 19 18 17 16 15 14 15 16 17 18 19 20 21 22 23 24 24 24 25 25 26 25 24 24 24 24 25 25 25 26 25 25 25 26 26 26 25 25 25 24 24 23 22 22 20 19 18 17 16 18 20 21 22 22 23
2 4 1 4 5 4 2 3 4 1 2 4 6 5 5 3 1 8 9 5 2 6 6 6 7 7 6 7 7 9 12 15 18 17 16 17 19 22 22 20 19 17 16 14 13 12 12 12 13 14 16 18 19 20 20 21 22 23 23 24 25 25 25 25 24 25 25 25 25 25 26 26 26 26 26 27 27 27 26 26 26 26 26 25 23 23 22 21 20 19 18 18 21 22 24 24 24
2 4 0 6 7 5 5 4 3 3 1 4 5 4 4 2 7 12 8 4 2 6 6 6 7 5 5 6 5 6 8 11 14 16 19 21 20 21 19 16 15 12 10 9 7 6 6 7 7 7 9 12 15 17 19 21 22 22 23 24 24 25 24 24 25 25 25 25 25 25 26 26 26 26 27 27 27 27 27 27 28 28 28 27 25 23 23 23 22 21 20 19 21 23 24 25 23
1 3 2 3 7 6 6 2 3 4 2 3 4 3 6 7 12 13 7 2 3 4 5 5 5 4 4 4 4 4 5 7 12 16 19 18 16 15 12 9 7 3 1 3 5 8 9 9 9 9 9 9 9 10 12 14 16 18 19 20 21 22 22 23 23 24 24 24 25 25 25 26 26 27 27 28 28 28 28 29 29 29 29 27 26 25 24 24 23 23 22 21 22 23 25 25 24
1 1 2 2 1 5 7 1 5 4 1 4 5 2 7 9 10 11 7 5 7 6 7 5 4 3 3 4 3 4 4 7 12 13 13 11 9 7 6 6 8 9 11 13 14 15 15 15 14 14 14 13 13 13 13 13 14 14 15 16 17 18 19 21 22 23 23 23 24 24 25 26 26 27 27 28 28 28 29 30 30 30 29 28 27 26 26 26 25 24 24 23 24 25 26 27 27
3 0 3 3 2 5 8 2 7 5 1 4 5 2 7 10 10 8 3 6 7 7 7 5 5 4 4 4 4 3 4 5 5 5 6 8 10 11 13 15 15 15 16 18 17 17 17 17 16 16 17 15 15 14 14 14 15 15 16 16 16 17 18 19 20 21 21 22 23 23 24 25 26 27 28 28 29 29 29 31 31 31 30 29 28 28 27 27 27 26 26 24 25 27 28 29 29
3 1 3 3 3 3 6 3 3 4 0 0 2 3 5 7 6 4 2 7 7 7 7 5 6 4 5 5 4 4 1 2 4 6 9 12 14 14 16 16 16 17 18 18 18 18 18 18 18 19 20 19 18 15 14 14 14 15 15 16 16 16 18 19 19 20 20 21 22 23 24 25 26 27 27 28 29 29 30 31 31 31 30 29 29 29 29 28 28 27 27 26 26 28 29 30 30
4 1 2 4 3 3 4 4 3 3 2 3 2 3 7 11 8 2 0 6 6 7 7 5 5 4 5 4 3 2 4 5 5 10 15 16 17 17 17 18 18 19 18 17 18 19 19 18 18 19 20 20 19 17 16 15 15 16 16 15 15 16 17 17 18 18 19 20 21 22 23 24 25 26 28 29 29 30 30 31 32 31 30 30 29 29 29 29 29 28 29 29 27 27 28 29 31
4 4 3 4 2 3 4 4 3 3 2 3 2 4 10 15 13 5 4 5 7 9 7 4 4 6 5 4 6 5 7 6 6 13 18 17 18 19 19 20 20 19 18 18 18 19 18 17 17 18 19 20 19 17 17 16 17 19 18 17 16 16 16 16 17 17 18 19 20 20 21 22 24 25 27 28 29 30 31 31 32 31 31 30 30 30 30 30 30 29 29 29 29 28 28 29 30
6 5 4 3 4 5 6 6 5 4 2 5 7 7 9 14 14 8 7 5 7 7 4 5 5 7 6 6 7 7 9 6 7 15 17 17 19 21 21 22 21 20 19 18 19 19 18 16 16 18 19 19 17 16 17 18 19 20 19 19 19 18 16 16 16 17 17 17 18 19 19 21 21 23 24 26 28 30 31 31 32 32 31 31 30 31 31 31 30 30 29 29 29 29 29 28 28
4 2 2 3 4 5 6 5 4 2 2 6 8 6 9 13 11 9 10 5 6 5 6 6 6 8 7 8 8 8 8 5 10 16 16 17 21 23 23 22 22 22 21 19 19 18 17 16 16 16 17 17 15 14 16 17 17 17 17 17 18 18 16 15 16 17 17 17 17 17 17 17 18 20 21 23 25 28 30 31 32 32 32 32 32 32 32 31 30 30 29 29 28 28 28 28 26
3 2 1 4 4 6 7 3 4 1 2 5 4 3 10 11 9 10 8 1 4 6 9 8 9 9 8 9 8 8 6 5 11 15 16 21 23 24 23 22 23 22 21 19 19 18 17 15 15 15 17 16 13 13 16 16 15 14 14 15 15 16 16 15 17 18 17 17 17 17 17 17 17 19 20 21 22 25 28 30 32 33 33 33 33 32 32 31 30 29 29 29 28 27 26 27 25
3 1 1 3 4 4 6 3 4 2 2 5 5 5 9 10 8 7 7 5 4 4 7 9 11 11 8 8 8 8 7 6 8 9 14 21 22 22 23 22 23 22 21 19 19 19 17 15 14 15 17 16 13 14 16 16 14 13 14 14 14 15 16 17 17 18 17 17 18 18 18 19 19 20 21 20 21 22 25 28 30 32 33 33 33 33 32 31 30 30 28 28 28 26 25 26 25
1 1 1 4 4 2 4 4 5 3 2 4 4 5 6 7 6 6 9 6 7 9 10 10 9 10 9 8 7 7 8 7 6 7 11 17 20 21 21 21 22 22 21 20 19 19 16 14 14 17 18 16 15 15 15 15 14 14 14 14 15 15 16 17 18 19 19 18 19 21 21 21 21 22 23 22 21 22 22 24 27 29 32 33 33 33 32 32 31 30 29 28 26 24 23 24 23
3 4 4 4 4 4 5 3 5 5 3 2 3 4 3 5 5 5 7 7 9 9 12 11 8 8 8 8 7 7 7 7 6 6 8 15 17 17 19 20 21 21 20 19 18 17 15 14 16 19 19 17 16 16 16 15 15 17 17 17 17 17 17 19 20 22 23 22 23 24 24 24 23 24 24 23 23 23 22 22 23 26 29 31 33 34 34 33 32 31 30 29 27 25 25 24 22
5 4 7 6 5 4 3 5 5 5 4 2 4 4 4 5 3 3 5 7 8 7 10 10 7 7 7 8 7 6 6 6 6 7 9 13 15 16 18 19 20 21 20 20 19 17 16 15 17 20 21 20 19 19 19 19 21 22 21 20 21 20 20 22 23 26 27 26 27 27 27 26 26 26 25 25 25 25 25 24 23 24 26 28 31 34 35 34 34 33 32 31 30 29 27 24 22
3 4 5 6 4 1 3 4 4 2 4 3 3 2 4 5 3 1 4 8 7 6 8 8 6 7 7 7 6 6 7 6 6 8 10 13 14 17 18 18 20 21 21 21 20 19 18 18 19 21 22 21 21 21 21 22 25 26 25 24 24 24 24 26 29 30 30 29 28 29 29 29 28 28 27 27 27 27 27 26 25 25 25 27 29 32 34 34 35 34 33 32 31 30 27 24 24
3 3 4 4 0 2 1 2 1 2 3 4 1 4 3 4 4 1 4 9 7 6 7 6 5 7 7 7 6 6 6 6 7 7 9 13 15 16 16 17 19 20 21 22 22 22 21 20 20 21 22 22 23 24 24 25 27 29 28 27 27 27 28 30 32 33 33 32 31 31 31 31 31 30 29 29 28 28 29 28 28 26 26 26 28 30 33 33 34 34 33 32 31 30 29 28 27
5 4 4 1 2 2 3 3 1 1 2 5 4 2 2 4 3 0 4 7 6 5 6 5 6 6 7 7 6 6 6 6 7 8 9 13 15 15 15 17 18 20 22 22 22 23 23 22 21 22 23 25 27 28 29 30 31 32 31 30 28 28 29 30 32 33 33 33 34 34 34 34 34 32 31 30 30 30 30 30 30 28 27 26 26 28 30 32 33 34 33 32 32 32 31 30 30
3 4 2 1 2 2 2 3 2 2 2 4 5 2 2 4 3 3 3 4 5 5 5 4 5 6 6 6 6 6 6 7 8 10 12 13 14 15 17 18 20 21 23 23 23 24 23 23 24 25 26 28 30 31 32 33 33 33 32 30 29 28 29 31 31 32 32 32 33 34 34 36 36 35 34 32 32 31 31 32 32 31 30 27 27 27 28 30 31 33 33 33 33 33 32 31 31
0 3 2 4 4 3 3 2 3 4 2 5 6 3 3 2 4 4 3 3 7 6 4 3 4 6 6 5 6 6 7 7 7 10 12 13 15 19 21 22 21 22 23 24 24 24 24 25 27 27 28 30 32 33 33 33 32 31 31 29 28 29 31 32 32 32 32 32 32 32 33 34 35 35 34 34 33 32 33 34 34 34 32 29 28 28 28 29 29 31 32 33 33 33 33 32 32
2 4 3 4 4 3 4 4 4 3 4 6 4 2 4 1 4 2 1 3 7 7 6 6 6 6 5 5 6 6 7 7 7 7 9 14 18 20 22 22 22 23 24 24 25 25 26 27 29 30 32 33 33 33 33 32 31 31 30 29 29 31 32 33 33 32 32 31 31 31 32 32 32 32 32 33 33 34 35 36 36 37 35 33 32 31 30 29 29 30 31 33 33 33 34 33 33
4 3 4 4 4 4 3 4 1 2 4 4 1 1 1 3 4 2 1 4 6 5 6 7 7 7 6 6 6 6 6 7 7 6 8 12 14 15 18 20 21 23 23 24 25 26 27 29 30 32 32 32 32 32 32 31 31 30 29 29 30 32 33 33 32 31 30 29 30 30 30 31 31 30 31 32 33 34 35 37 38 39 39 38 36 33 31 30 30 31 32 33 34 34 34 34 35
4 2 2 2 2 3 4 4 2 3 4 3 2 3 2 2 2 0 3 4 2 4 6 7 7 7 6 7 6 6 6 6 6 6 7 9 12 14 17 19 21 22 22 24 25 26 28 29 29 29 29 29 29 30 31 31 30 28 28 30 31 32 31 30 30 29 29 29 30 31 31 31 31 31 32 32 33 33 34 35 37 39 41 41 40 35 32 32 31 32 33 34 35 35 35 35 36
2 2 3 2 2 1 4 4 2 5 4 4 3 2 2 1 3 2 3 5 5 6 6 6 7 7 7 7 7 6 6 6 6 6 7 10 14 16 18 19 19 20 21 23 24 24 26 27 26 27 27 27 29 31 32 30 28 28 30 31 31 30 30 30 28 27 28 31 33 34 34 33 32 32 32 31 31 31 32 34 36 37 39 41 41 39 35 33 33 34 36 36 37 36 36 36 36
2 2 3 1 3 3 2 3 4 3 3 4 3 1 2 1 3 4 5 6 7 6 6 7 8 7 7 7 5 5 5 5 5 5 6 11 15 16 17 17 17 18 19 20 22 23 25 26 26 26 26 28 30 32 30 27 28 31 31 30 29 30 30 28 27 28 33 36 36 36 35 32 29 29 29 30 30 31 32 34 35 35 36 38 41 41 39 37 37 37 38 38 38 37 36 36 36
0 1 0 3 4 4 1 3 2 2 2 3 1 1 0 2 4 3 6 7 7 6 7 8 7 7 7 5 4 4 4 5 5 4 6 10 13 14 14 15 17 17 17 19 21 23 26 26 25 25 27 29 31 31 27 26 30 31 28 27 29 30 28 28 30 34 36 36 34 33 31 28 27 28 30 31 32 33 34 34 36 36 35 35 38 41 41 40 39 38 37 37 37 37 36 36 36
1 1 4 2 1 4 3 1 4 3 2 4 1 2 2 2 3 1 5 6 5 6 6 7 7 7 7 5 5 5 4 5 4 4 8 10 12 13 14 15 17 16 17 21 23 25 26 24 22 24 26 28 29 28 25 26 29 27 25 29 31 30 29 31 33 34 34 33 31 29 27 27 29 31 32 33 35 36 36 36 37 37 36 35 34 35 37 37 36 35 35 36 37 36 35 36 36
2 3 3 1 1 1 1 0 1 2 2 3 4 3 2 2 3 3 3 3 4 6 6 6 7 6 6 5 5 4 4 4 3 5 7 9 12 14 15 16 17 18 20 22 24 26 26 23 23 26 27 27 28 27 25 25 25 24 27 32 33 31 30 30 31 32 31 29 28 27 28 30 33 34 36 37 38 38 39 39 38 39 38 37 35 34 34 34 34 34 34 35 36 35 34 35 36
3 1 3 1 3 3 1 1 2 1 3 3 4 4 1 2 3 5 4 2 4 5 5 5 5 5 5 5 4 4 4 4 4 4 5 8 11 14 15 16 18 19 21 23 26 28 26 24 26 29 30 29 29 29 26 23 23 27 32 36 35 31 29 29 31 30 27 26 28 31 34 36 38 39 39 40 39 39 39 40 39 39 39 37 37 36 35 34 33 34 34 34 35 35 34 35 36
1 1 2 2 1 1 0 1 2 2 2 2 3 5 3 2 1 5 6 4 4 5 4 3 4 5 7 5 4 4 3 3 4 3 5 8 10 13 15 17 18 20 23 27 30 29 26 25 28 30 30 31 31 30 24 23 29 34 37 38 34 30 29 30 28 25 24 29 35 38 39 40 41 40 39 39 40 40 41 40 40 39 38 38 37 37 36 36 35 35 35 36 36 35 34 34 35
3 2 2 2 1 1 1 4 2 1 2 4 1 5 5 3 2 4 6 5 4 4 4 3 5 6 7 5 3 3 2 3 2 2 5 8 10 14 16 18 21 23 26 29 29 27 24 25 27 29 29 30 31 28 23 28 36 37 38 37 32 29 30 28 24 23 28 36 40 40 40 41 41 40 39 39 41 43 43 41 40 39 38 37 37 36 36 37 38 39 37 36 35 34 33 34 34
Wind_Direction
319 314 319 324 321 327 349 77 74 318 94 107 242 195 248 180 157 149 142 187 185 247 211 165 112 110 121 140 176 177 160 163 170 147 209 193 146 165 170 166 165 165 170 170 162 154 156 134 128 119 111 104 95 89 80 75 67 62 57 52 50 46 43 38 34 32 27 24 19 18 16 13 14 14 13 14 14 13 14 15 16 15 14 15 13 14 13 12 11 8 6 3 360 359 358 356 355
320 318 325 327 331 343 265 83 96 316 60 231 242 187 237 111 134 182 182 195 210 202 170 134 100 84 71 76 126 147 217 255 162 148 182 147 144 166 173 173 171 172 176 168 160 159 177 142 134 130 123 117 107 99 87 80 73 64 61 55 52 49 44 39 34 31 27 23 18 17 15 11 11 11 10 9 10 9 11 13 13 14 12 11 10 10 10 9 9 10 8 6 5 2 0 358 357
324 326 332 334 351 47 63 47 96 119 85 233 264 234 186 148 207 214 198 211 212 156 123 123 97 82 73 46 139 166 233 272 157 128 112 158 158 168 172 173 172 178 178 166 162 169 173 145 142 142 131 126 115 106 96 86 79 69 64 58 55 51 46 40 34 30 25 20 15 13 12 10 8 8 6 6 8 7 8 10 10 11 11 9 7 7 7 6 6 7 7 7 7 5 3 0 358
328 332 340 1 30 34 54 49 131 124 138 217 260 255 187 180 206 213 215 216 193 139 108 138 133 178 104 123 214 129 222 247 184 154 145 181 179 169 168 167 171 178 177 174 172 177 162 146 149 147 137 132 122 112 104 92 86 76 68 62 57 53 47 43 35 31 24 18 14 10 8 5 5 5 2 4 6 5 5 6 8 8 9 8 5 5 4 3 4 4 5 5 5 6 5 2 359
333 338 355 67 77 27 87 78 96 113 200 192 207 254 202 185 179 177 204 210 200 152 142 136 154 263 116 208 202 165 211 229 185 175 167 185 181 167 166 166 173 177 179 179 175 178 152 146 152 147 141 134 127 119 112 99 91 80 72 64 59 54 47 44 37 32 26 21 16 9 6 1 1 2 359 2 4 3 3 4 6 7 7 6 4 3 1 1 1 1 2 4 4 4 4 3 1
341 353 38 87 87 151 111 185 176 183 223 172 177 248 196 172 167 159 158 213 264 193 165 152 168 191 280 252 207 189 193 118 166 191 182 175 174 167 165 168 175 178 182 182 178 175 145 146 151 143 140 133 127 122 115 105 98 85 77 67 59 54 47 43 38 34 30 25 20 14 7 1 359 0 359 0 4 2 0 2 3 5 4 3 2 1 359 358 358 359 1 1 1 2 2 2 360
345 359 45 68 15 49 105 184 199 211 222 174 188 214 174 168 163 143 143 163 320 289 196 201 150 118 247 255 205 209 179 150 154 189 185 168 170 168 166 171 177 181 185 184 180 171 145 146 150 141 135 130 126 122 116 113 108 98 87 72 63 54 47 40 37 36 32 30 26 22 14 6 3 2 2 2 3 0 358 359 359 1 360 358 357 357 357 356 357 357 358 359 359 359 360 359 358
351 358 47 87 17 16 96 174 207 196 195 201 202 184 165 163 158 144 159 169 168 231 200 241 151 112 268 254 182 247 167 192 180 180 174 165 170 172 171 176 181 184 187 185 178 172 153 150 152 143 135 135 134 131 122 121 112 104 91 72 68 56 52 39 36 36 32 33 32 31 25 19 15 8 6 3 0 358 356 353 354 357 355 356 354 354 355 354 355 354 356 357 357 358 359 358 357
33 75 13 90 143 1 53 231 231 210 261 290 169 137 154 158 155 146 161 194 184 176 201 206 165 181 268 271 235 278 200 203 193 170 169 168 173 174 176 181 184 185 187 186 182 180 164 156 158 151 145 146 148 148 136 129 111 99 87 70 67 56 58 41 34 37 33 34 35 35 31 29 27 21 15 5 357 354 351 347 347 351 351 354 352 351 352 352 353 353 355 355 356 358 359 359 359
44 24 69 100 81 10 334 257 233 232 262 270 203 152 153 160 159 153 158 200 189 162 218 180 146 215 225 209 237 290 220 194 175 167 172 173 172 175 180 184 188 186 187 188 187 188 177 164 166 169 166 162 165 168 161 151 134 109 86 65 56 44 54 42 32 34 33 34 35 34 32 32 30 28 20 5 356 351 346 341 341 345 347 351 349 348 348 348 350 351 353 353 354 356 358 360 1
36 352 96 88 46 183 245 223 253 273 267 313 258 179 166 162 147 157 163 181 176 154 192 135 180 226 158 237 249 291 181 176 174 170 172 175 174 179 181 184 191 192 191 189 190 194 191 181 181 188 190 189 193 194 198 200 212 216 256 316 337 345 17 25 19 23 28 29 32 34 33 34 32 30 20 5 353 346 342 338 338 339 342 346 346 344 343 344 346 350 351 349 351 352 356 0 5
71 337 64 104 182 216 217 181 221 248 281 293 193 210 174 156 142 174 186 178 169 160 198 181 185 172 139 265 271 347 167 174 181 173 172 176 178 182 183 185 190 198 199 195 196 200 203 202 202 206 211 217 220 226 231 232 241 247 259 279 300 304 319 339 350 7 15 19 24 28 30 33 35 32 24 14 360 349 344 338 334 334 338 342 342 340 337 338 340 346 348 345 348 348 351 357 5
106 145 88 149 197 177 162 154 207 203 295 248 199 200 158 158 183 191 179 172 166 163 227 205 155 129 185 260 279 225 176 181 181 174 173 177 181 182 184 186 190 199 204 205 207 209 211 214 218 221 225 231 235 241 246 252 256 258 262 271 286 292 299 310 323 342 352 0 8 13 21 28 31 31 26 23 15 7 359 347 338 335 339 338 338 337 334 335 335 341 344 341 344 345 348 350 355
131 149 113 195 271 116 146 132 201 171 254 250 206 169 158 181 206 179 152 173 197 181 224 198 146 128 218 250 292 253 198 188 178 176 177 178 182 181 184 188 192 200 207 213 217 218 218 221 226 231 236 238 244 246 248 257 263 265 265 268 278 288 291 297 306 317 329 339 346 354 4 14 20 21 21 21 19 17 10 1 359 351 340 336 335 335 334 333 330 336 339 337 341 342 344 341 340
136 126 90 116 357 44 168 201 173 164 236 233 192 163 165 232 169 156 170 187 225 211 148 174 156 166 202 181 229 233 196 185 178 179 178 179 183 181 185 190 196 203 209 217 221 225 225 227 231 235 241 243 249 252 252 257 264 267 268 271 277 289 292 292 298 302 309 320 328 337 345 355 2 5 10 13 14 16 12 9 10 360 338 333 334 334 334 332 328 332 335 334 337 338 339 331 325
116 104 69 83 304 155 196 220 134 156 244 224 192 149 155 258 147 158 215 170 217 241 138 181 191 184 170 174 226 220 185 179 177 179 178 180 183 183 188 192 200 205 210 218 223 229 231 233 236 239 244 247 253 256 258 259 263 267 269 272 275 285 292 290 293 297 300 307 314 322 329 335 343 351 356 358 3 9 10 10 10 1 342 332 331 331 330 330 328 327 330 332 331 333 334 317 311
63 80 73 42 196 186 194 190 164 176 238 233 228 162 163 251 273 173 270 111 141 232 204 216 219 154 165 200 251 180 170 172 174 176 176 179 183 186 192 197 200 203 211 219 225 231 234 237 240 243 246 250 254 257 259 260 262 264 266 269 272 278 285 287 289 294 297 299 304 310 317 323 328 337 344 345 350 358 4 7 6 2 351 336 327 323 320 322 322 321 324 324 323 330 324 303 304
54 77 102 199 195 196 187 186 195 172 208 218 220 188 168 211 247 192 11 348 246 248 264 258 267 336 68 206 173 157 163 168 172 173 174 177 182 188 195 200 202 207 213 219 225 229 234 238 243 247 250 252 255 258 258 259 260 260 263 267 269 272 279 282 283 290 295 296 298 303 311 316 318 324 334 335 338 347 354 357 358 359 352 339 327 317 310 306 309 315 317 314 316 317 305 296 304
88 106 107 219 202 203 200 188 188 182 208 202 218 203 176 205 202 144 214 260 276 235 266 272 257 292 23 137 149 156 161 166 171 174 175 179 185 190 196 201 205 211 215 219 224 227 232 238 243 249 254 256 256 258 258 259 258 258 261 266 269 270 277 281 282 287 292 294 294 300 306 310 313 316 324 327 330 337 342 344 347 350 348 342 334 324 315 303 297 300 301 302 302 301 300 303 309
128 114 116 239 213 202 225 200 193 218 197 174 218 207 179 216 179 146 209 246 268 224 238 224 230 241 207 161 152 157 162 168 174 177 180 185 191 195 198 201 206 213 218 222 225 228 233 238 243 248 253 255 255 257 257 258 259 260 262 266 269 270 276 281 284 286 288 291 291 296 302 305 308 310 316 320 323 326 330 334 336 339 341 341 337 331 325 310 295 290 290 291 294 300 305 307 307
106 113 180 227 179 180 232 208 202 234 187 166 196 158 192 231 172 180 167 208 274 238 228 211 216 219 193 181 166 164 165 171 178 182 187 192 197 201 203 207 211 217 223 227 230 233 236 240 245 248 250 252 253 255 256 259 260 260 263 266 269 270 275 279 283 285 287 289 290 293 297 300 303 305 309 313 317 319 323 328 330 331 334 336 334 330 326 314 299 291 290 290 294 300 302 300 300
64 6 207 198 138 189 239 211 208 236 145 140 149 161 216 216 177 206 165 203 248 223 222 211 213 212 183 177 174 169 170 175 182 188 193 197 202 206 210 214 217 222 227 230 235 239 242 245 248 249 250 250 251 254 255 258 259 260 264 267 269 271 275 279 283 285 286 289 289 290 293 297 299 301 303 308 313 314 317 322 325 325 327 329 329 326 323 314 302 293 289 289 291 294 293 292 293
111 288 234 200 178 192 223 201 221 145 113 139 168 197 252 30 280 232 186 223 233 214 213 195 212 213 179 168 166 170 179 183 187 194 198 201 205 209 213 218 222 226 230 235 241 245 247 249 251 251 250 249 250 253 253 255 257 260 265 267 269 273 275 279 283 285 287 289 289 288 291 295 297 298 299 303 309 310 311 315 319 320 322 324 324 322 320 312 302 295 289 288 288 288 287 286 288
97 224 233 212 189 182 194 193 200 117 134 192 177 22 264 218 269 299 228 240 235 238 233 179 201 186 161 159 167 180 186 190 196 200 202 205 209 213 218 223 228 233 237 243 248 249 252 254 253 251 250 251 251 252 251 254 257 260 264 265 269 273 274 279 285 287 287 288 287 286 289 293 295 296 297 301 305 306 307 310 313 315 317 319 319 318 318 312 302 295 288 285 285 284 283 284 286
85 197 221 166 174 224 207 170 194 167 193 215 69 307 249 219 245 308 263 255 242 229 229 178 141 131 152 167 177 183 188 197 203 205 208 212 214 218 224 230 235 238 242 249 254 256 261 262 259 255 253 255 255 254 253 256 258 260 263 267 271 273 274 280 285 285 286 287 286 285 287 290 293 295 296 299 302 302 304 305 307 310 313 315 315 315 316 312 305 298 287 282 283 283 283 283 284
203 178 184 157 233 241 188 179 235 264 257 130 120 276 271 258 281 291 265 263 262 214 206 192 154 145 166 177 182 185 194 203 205 207 213 217 218 223 229 234 236 239 246 253 257 261 267 269 265 262 261 262 260 257 257 260 261 262 267 272 274 275 277 281 283 285 287 287 286 286 287 289 291 293 294 298 299 300 301 301 303 306 309 312 312 312 314 311 306 300 289 282 282 283 282 282 283
186 126 128 129 262 244 178 218 253 293 281 171 193 260 282 304 317 272 270 281 294 164 188 194 174 180 177 173 188 191 199 207 205 205 210 216 218 225 232 235 238 243 249 253 259 265 271 273 273 271 269 267 264 262 264 265 266 269 274 276 276 278 280 282 283 286 288 288 289 288 287 289 290 291 293 296 297 298 299 299 301 303 305 310 310 309 311 309 305 300 291 283 282 283 283 283 283
117 113 95 343 347 306 257 242 264 306 275 187 182 258 295 354 256 234 258 301 57 138 179 194 187 203 186 177 183 185 205 213 204 196 201 211 217 224 232 236 238 243 248 255 265 270 277 284 284 280 274 269 266 267 270 270 273 277 280 281 282 284 284 283 284 288 290 292 293 290 290 290 290 291 292 295 296 297 297 297 298 300 304 307 307 307 307 306 304 299 292 285 283 283 284 284 284
77 92 24 319 1 326 259 227 222 154 198 173 156 304 310 197 227 239 251 292 56 131 172 190 190 204 193 191 177 177 207 207 195 195 204 213 219 225 231 235 238 244 253 261 278 297 319 326 321 311 298 286 279 278 278 278 281 283 285 287 289 289 287 286 289 292 294 295 295 293 293 293 291 292 293 295 296 295 295 295 296 299 303 305 305 304 304 304 303 299 295 289 286 285 285 286 285
55 67 93 321 4 324 265 201 131 150 183 141 132 307 289 238 237 250 258 219 140 152 193 198 190 190 187 200 188 203 212 181 187 202 211 217 219 223 226 231 228 230 52 70 58 53 49 43 41 35 27 14 355 332 314 304 302 300 299 299 298 296 294 294 296 298 298 298 298 297 295 295 294 294 294 295 295 295 294 294 295 298 301 303 302 301 301 302 301 299 298 293 290 289 288 288 286
47 43 59 3 358 291 292 258 134 154 216 105 114 242 269 269 258 260 256 182 166 198 223 215 210 204 186 199 190 217 225 191 195 200 201 199 188 178 155 119 110 99 84 80 72 67 62 55 52 45 39 32 25 17 5 354 344 336 326 320 313 308 305 304 305 304 303 302 301 300 299 298 297 296 296 296 295 294 293 293 295 298 300 300 299 299 299 299 300 299 299 295 292 291 289 289 288
40 24 314 338 184 263 304 287 157 169 296 86 114 224 270 278 275 282 257 168 176 209 226 221 226 219 185 193 185 200 229 205 191 163 152 145 132 119 108 98 96 92 82 78 71 67 63 55 51 44 37 30 22 15 7 2 356 352 345 335 326 318 315 314 315 312 309 308 306 304 304 302 300 300 298 297 295 294 292 293 295 297 298 296 296 297 297 298 299 299 299 295 290 290 290 290 289
355 113 258 262 203 272 314 305 193 168 162 73 172 226 281 278 271 330 75 167 183 214 229 225 233 221 176 181 184 185 182 78 63 91 117 119 113 106 101 98 95 90 83 80 71 66 64 56 49 42 36 29 24 19 11 6 359 355 351 345 337 331 327 324 322 319 317 316 313 310 309 307 304 303 301 298 295 293 292 292 294 296 295 294 294 295 296 297 298 297 297 295 289 287 288 288 289
323 7 252 251 219 263 302 307 310 98 137 256 233 219 260 270 266 354 341 190 182 218 230 221 220 188 167 164 141 108 79 72 77 109 115 110 107 103 104 105 98 91 87 81 69 64 61 54 46 38 31 26 23 22 19 14 8 2 356 350 344 341 339 334 329 325 325 324 320 317 314 310 308 306 304 300 295 294 293 291 293 294 293 291 291 291 293 294 295 293 293 295 291 286 285 286 288
261 256 245 281 288 255 258 276 273 122 157 246 252 246 255 270 275 291 279 208 182 220 218 184 171 142 135 105 92 88 87 89 103 112 110 108 108 107 109 105 94 88 85 75 66 63 59 52 44 36 28 22 19 19 19 16 12 7 2 358 352 348 344 340 337 333 333 331 326 325 320 316 314 311 307 302 297 295 293 292 293 293 291 289 288 288 289 291 292 292 291 292 292 287 283 283 285
211 226 189 232 275 269 253 262 249 168 160 249 237 249 259 270 280 296 292 233 189 215 169 130 128 111 102 96 102 100 94 87 86 99 104 107 110 111 107 98 88 83 79 72 68 62 56 49 40 33 26 18 15 15 14 11 7 4 1 359 355 354 350 345 344 341 339 336 332 329 325 322 320 316 313 307 301 297 294 293 293 292 290 287 284 284 287 290 291 291 291 290 290 288 285 284 284
148 154 155 237 256 278 271 274 281 164 140 259 237 246 265 271 286 302 296 256 183 169 132 123 107 99 105 110 104 93 90 73 75 86 96 106 110 108 101 91 83 78 73 70 66 57 48 41 35 31 23 14 12 10 7 4 1 359 356 354 350 349 348 345 345 344 342 339 336 332 327 326 324 320 317 312 306 300 297 294 292 291 289 286 283 284 286 287 288 288 288 288 286 285 285 285 285
75 133 206 299 254 260 266 243 292 352 109 268 271 290 277 285 304 308 312 326 147 145 138 127 105 104 107 105 95 87 85 67 75 81 90 102 106 101 93 84 76 72 70 64 56 47 40 36 35 31 22 15 10 3 1 357 354 352 348 346 343 340 340 337 336 339 337 334 334 332 330 329 327 326 325 319 311 304 299 295 292 291 289 286 283 283 284 283 284 285 285 284 284 282 281 283 285
67 98 80 307 263 276 287 276 312 0 131 274 317 325 290 296 306 323 0 50 69 71 107 114 111 109 101 100 96 91 86 72 75 77 86 98 99 92 87 79 71 66 62 55 46 42 39 38 36 28 20 16 8 359 356 351 346 343 336 334 333 331 333 331 327 329 330 326 327 328 328 328 326 326 327 325 319 311 304 298 295 293 289 286 282 280 280 280 281 283 282 280 280 280 279 280 281
103 186 179 272 276 309 282 296 324 308 228 265 307 308 296 310 325 9 21 52 66 60 79 84 95 103 103 107 101 97 96 86 78 70 82 94 90 83 82 77 67 59 54 47 40 38 40 41 34 25 19 13 5 357 351 345 339 335 328 324 322 317 320 322 320 322 324 321 322 324 324 324 323 321 321 321 319 316 310 303 299 295 291 288 283 279 278 279 280 281 281 279 276 274 275 278 278
289 213 199 242 262 242 235 285 321 317 312 311 337 323 312 334 355 35 29 53 66 69 82 73 68 88 96 97 85 86 92 88 83 67 77 93 88 80 78 71 60 54 49 42 37 37 41 42 33 25 17 8 1 356 348 343 339 335 329 324 320 314 312 315 315 319 322 320 320 321 320 320 319 316 316 314 312 313 311 307 303 296 293 289 284 280 278 279 279 279 281 279 274 271 271 275 276
312 240 207 209 213 235 283 335 345 359 339 327 29 7 302 323 354 65 42 58 60 58 82 82 77 84 87 88 79 73 74 77 81 71 83 99 92 81 72 61 53 49 45 42 40 40 40 36 30 22 15 9 3 357 352 346 342 337 330 325 322 316 312 313 316 318 318 317 317 317 317 316 314 312 311 310 308 308 307 306 304 298 294 289 284 281 278 278 277 278 279 276 274 272 270 270 271
312 254 190 170 159 262 336 6 13 5 279 283 70 118 256 310 314 154 67 78 72 59 81 89 91 90 88 88 84 76 69 63 64 64 81 94 85 73 64 52 49 47 45 46 45 43 39 32 26 21 19 18 12 6 1 356 352 347 339 331 326 321 314 314 318 318 314 312 311 312 313 313 311 308 306 306 305 304 302 302 303 300 294 289 284 279 275 276 277 277 277 273 272 272 265 261 264
252 239 135 133 140 302 259 95 112 228 270 311 31 147 209 295 287 233 100 97 83 70 87 92 95 96 91 88 84 80 73 68 66 64 80 87 76 66 57 49 51 51 49 48 45 40 35 29 27 26 24 21 14 9 4 1 358 355 350 343 335 331 324 321 322 320 315 310 306 306 309 309 308 305 302 302 301 300 298 297 298 296 293 290 284 278 276 276 275 274 274 272 270 268 262 258 260
255 211 153 184 245 225 180 143 208 260 0 321 296 147 176 272 275 122 99 105 109 117 122 120 115 105 97 90 83 76 69 63 64 67 80 80 69 58 51 51 56 55 49 43 38 34 31 32 31 26 20 13 7 2 358 355 353 351 350 345 339 336 333 330 329 327 323 319 313 309 309 308 307 304 300 300 298 297 295 293 293 290 288 287 283 279 278 277 274 272 270 269 267 265 261 258 258
250 168 163 17 55 101 115 118 134 41 27 275 265 180 154 276 260 155 116 122 151 166 158 147 126 107 100 92 81 69 57 48 53 67 78 75 59 47 45 50 53 49 42 37 37 36 34 31 24 17 12 6 1 357 353 351 349 347 346 343 338 337 337 334 332 329 327 325 320 315 313 311 308 305 303 301 298 297 296 292 289 285 283 282 278 276 276 275 274 272 271 269 266 263 260 257 256
101 84 15 7 30 44 48 77 91 55 312 258 258 213 138 305 258 183 180 187 166 158 157 146 102 87 89 83 74 62 53 49 52 63 68 58 44 39 41 42 42 39 38 38 37 33 28 20 13 10 6 1 357 353 351 349 347 346 345 342 340 339 338 335 332 329 326 324 321 318 317 315 312 310 307 305 302 302 299 294 289 285 281 278 274 271 271 272 273 274 272 269 265 262 260 258 257
75 65 25 358 345 15 23 356 45 76 263 266 269 221 140 194 256 250 281 174 150 148 150 140 108 87 81 72 63 55 55 56 54 53 48 39 34 35 36 34 34 36 37 35 30 23 18 12 7 3 359 356 353 351 351 350 349 348 346 344 342 340 338 334 330 326 324 324 322 322 322 321 319 316 314 312 311 311 307 301 295 288 280 275 272 270 267 268 269 270 269 267 265 262 260 259 257
48 41 43 21 341 0 358 320 340 191 245 268 320 37 172 227 252 274 84 129 152 154 138 130 114 94 78 63 54 52 57 56 52 49 40 36 33 30 29 30 33 35 33 28 21 16 11 6 2 357 353 352 351 352 353 352 350 349 347 346 344 341 337 334 331 328 329 331 331 331 330 328 325 323 321 318 317 317 313 307 302 293 284 276 272 268 265 264 263 263 263 262 261 259 258 256 255
8 354 83 76 27 3 309 284 300 285 267 266 334 2 297 281 329 17 99 102 131 113 105 112 107 97 81 63 55 52 52 51 50 48 43 36 30 27 29 33 34 31 25 19 14 10 6 1 356 352 350 351 354 354 353 351 351 350 350 347 344 342 339 338 336 335 337 339 338 336 333 330 327 324 323 322 321 321 317 312 306 297 288 279 272 266 264 262 260 259 259 258 256 256 255 253 253
305 200 132 130 149 168 266 244 249 283 288 289 306 320 247 250 37 42 69 64 67 81 86 87 85 84 75 61 50 44 44 48 48 45 41 31 28 31 34 33 29 21 15 13 10 6 1 355 351 350 352 356 356 354 352 353 354 352 349 346 344 342 340 338 338 338 340 338 335 331 327 325 324 323 324 326 327 328 326 322 314 303 293 282 272 266 262 261 260 258 256 255 253 252 251 249 250
279 155 94 129 181 162 229 214 205 259 321 309 278 232 221 148 67 41 59 67 58 61 72 75 71 66 64 56 37 29 44 59 54 41 34 32 35 38 35 27 19 11 10 9 6 2 357 353 353 356 358 357 354 352 352 354 353 349 347 346 345 342 339 338 340 338 335 333 330 328 326 326 326 329 332 333 333 333 332 330 325 317 305 290 277 267 262 261 260 257 254 251 250 249 247 247 248
310 73 264 232 184 132 134 270 314 30 346 287 232 159 264 99 91 43 55 64 45 39 59 70 71 63 54 46 22 8 39 76 70 46 41 44 42 35 25 18 10 6 7 5 2 359 356 355 357 0 359 354 351 350 350 351 349 348 348 349 345 341 339 338 336 333 331 331 332 332 332 333 335 337 337 335 333 332 331 330 329 327 320 306 289 274 265 262 260 255 252 251 251 250 248 247 248
119 242 251 247 114 86 95 284 343 12 270 271 285 187 200 148 147 103 61 65 49 43 63 70 65 53 38 24 3 358 41 80 76 54 52 47 36 21 13 9 5 4 3 0 358 356 356 358 2 1 356 351 349 348 347 346 347 349 350 347 342 337 334 332 331 331 332 334 337 340 340 339 340 339 337 335 333 331 329 327 326 325 323 319 307 290 277 269 262 257 255 254 254 252 249 249 250
123 220 248 45 69 322 13 124 304 326 285 282 309 287 208 194 193 163 112 89 76 61 65 66 51 37 22 3 349 3 52 71 52 50 47 33 19 9 4 2 2 3 360 356 355 354 356 1 1 358 354 350 348 347 342 342 347 350 347 342 337 332 331 331 332 332 334 339 342 344 342 339 337 335 333 331 329 327 326 324 322 319 317 316 313 306 296 284 271 264 261 258 255 252 249 250 251
26 341 319 25 166 197 204 179 186 233 281 281 315 324 287 252 227 152 128 88 81 76 73 65 44 24 7 351 353 19 53 55 43 48 32 15 7 2 1 2 1 358 354 354 355 355 358 0 358 355 352 348 347 345 341 344 349 346 341 339 335 332 332 333 333 335 340 344 344 340 337 334 331 329 328 327 326 325 323 321 318 315 313 311 309 307 303 296 283 272 266 262 257 253 248 249 251
11 18 313 298 280 255 264 271 154 145 240 249 310 304 268 289 323 124 106 73 76 90 90 66 30 13 359 350 5 27 47 51 48 49 14 358 358 1 3 2 358 355 354 356 356 355 357 357 355 353 350 347 345 342 343 347 346 341 338 336 334 333 333 333 336 342 345 343 338 334 331 329 327 327 327 326 325 324 322 319 317 314 312 309 306 303 301 298 293 283 273 265 260 254 249 250 251
158 175 209 199 238 340 321 293 303 77 195 189 236 285 270 300 17 109 102 88 87 84 78 43 14 2 349 345 8 30 60 62 56 31 352 348 358 2 2 360 358 356 356 356 354 353 354 354 353 350 347 345 343 342 345 346 341 337 335 334 333 332 332 334 340 345 342 338 334 331 329 328 326 326 326 325 323 322 320 318 315 313 312 310 306 303 300 297 294 290 282 270 261 254 252 253 252
Height
804 804 803 804 802 802 804 806 822 828 831 845 847 846 840 836 839 840 843 845 843 843 844 843 843 843 842 841 841 842 844 843 842 849 849 847 852 852 854 855 855 857 858 859 860 861 861 862 862 862 862 862 862 862 862 861 861 860 860 860 859 859 858 858 858 857 857 856 856 855 855 854 853 853 852 851 851 850 849 849 848 847 847 846 845 844 844 843 842 842 841 840 839 838 838 837 836
804 804 803 803 801 804 808 810 827 836 837 846 847 844 839 838 841 837 840 842 840 841 843 843 843 844 843 843 844 843 844 847 846 847 849 852 853 853 855 855 855 856 857 859 860 861 861 861 861 862 862 862 862 862 861 861 861 860 860 860 859 859 858 858 858 857 857 856 855 855 854 854 853 853 852 852 851 850 850 849 848 847 847 846 845 845 844 843 842 842 841 840 839 838 838 837 836
804 804 803 803 802 804 810 813 829 840 841 844 841 840 839 838 838 837 840 841 841 843 843 844 843 843 844 843 844 841 843 849 849 849 852 852 851 852 854 854 855 856 857 859 859 861 860 861 861 861 862 862 862 861 861 861 861 860 860 860 859 859 858 858 858 857 857 856 855 855 854 854 853 853 852 851 851 850 850 849 848 847 847 846 846 845 844 843 843 842 841 840 839 838 837 837 836
804 803 802 802 805 808 814 819 830 837 841 846 839 835 837 835 835 840 843 843 844 843 842 843 843 843 843 842 843 842 843 847 846 846 849 849 849 850 852 854 855 856 857 858 859 860 860 860 861 861 861 861 861 861 861 861 861 860 860 860 859 859 858 858 858 857 856 856 855 854 854 853 853 852 852 851 851 850 849 849 848 847 847 846 846 845 844 843 843 842 841 840 839 838 837 836 835
803 803 802 802 809 812 817 827 835 836 836 840 836 832 834 834 837 843 844 844 845 843 842 843 842 843 843 842 842 841 841 844 844 844 845 846 848 849 852 853 854 856 856 858 859 859 859 860 860 861 861 861 861 861 861 861 860 860 860 859 859 859 858 858 857 857 856 856 855 854 853 853 852 852 851 851 850 850 849 849 848 847 847 846 845 845 844 843 843 842 841 840 839 838 837 836 835
803 803 802 802 809 811 819 830 835 834 831 833 831 828 831 835 840 842 844 845 845 843 843 843 842 843 843 842 841 840 841 841 842 843 843 844 848 850 851 852 854 855 856 857 858 859 859 859 860 860 860 861 860 861 860 860 860 860 860 859 859 859 858 858 857 857 856 855 855 854 853 852 851 851 851 850 850 849 849 848 848 847 846 846 845 844 844 843 842 841 841 840 839 838 837 836 835
803 803 805 807 812 813 825 832 830 832 831 832 828 825 832 838 841 842 844 844 844 844 842 843 842 842 841 840 840 840 840 840 840 842 842 844 847 849 851 852 853 854 855 857 857 858 858 859 860 860 860 860 860 860 860 860 860 860 859 859 859 859 859 858 857 857 856 855 854 853 853 851 851 850 850 849 849 849 848 848 847 846 846 845 845 844 843 843 842 841 840 839 839 838 837 836 834
803 806 809 813 820 822 831 834 831 835 832 832 831 828 834 839 841 841 842 842 841 843 842 842 843 841 839 839 840 840 840 840 841 841 842 844 846 848 850 851 852 853 855 856 857 858 858 859 859 859 860 860 860 860 860 860 859 859 859 859 859 859 858 858 857 857 856 855 854 853 852 851 850 850 849 848 848 848 847 847 846 846 845 845 844 844 843 842 841 841 840 839 838 837 836 835 834
802 806 811 817 825 829 834 836 835 836 832 832 833 832 835 838 840 839 840 842 841 841 841 841 842 840 840 841 839 840 840 840 841 841 843 844 845 847 849 850 851 852 854 855 856 857 857 858 859 859 859 859 859 860 859 859 859 859 859 859 858 858 858 858 857 857 856 855 854 853 852 851 850 849 849 848 848 847 847 846 845 845 844 844 844 843 842 842 841 840 839 839 838 837 836 834 833
805 808 814 820 827 832 835 836 835 834 833 833 833 833 836 838 839 837 837 839 839 839 840 841 841 840 841 841 839 839 839 839 841 841 843 844 845 847 848 849 850 851 853 854 855 856 857 857 858 859 859 859 859 859 859 859 859 858 858 858 858 858 858 857 857 856 856 855 854 853 852 851 850 849 848 848 847 847 846 845 845 844 844 843 843 842 842 841 840 839 839 838 837 836 835 834 832
810 812 813 823 830 832 832 832 834 835 835 835 834 835 835 837 837 837 837 836 838 838 839 842 841 840 841 839 838 839 838 839 839 840 842 844 845 846 847 849 850 851 852 854 855 856 856 857 857 858 858 858 858 858 858 859 858 858 858 858 858 857 857 857 857 856 855 854 853 853 852 851 850 849 848 848 847 847 846 845 844 843 843 842 842 842 841 840 839 839 838 837 836 835 834 833 832
814 818 817 826 830 828 829 829 833 837 837 835 833 834 834 836 835 834 836 835 837 838 838 839 836 836 839 838 838 839 839 839 839 840 842 843 845 846 847 849 850 851 852 853 854 855 856 856 857 857 858 858 858 858 858 858 858 858 857 857 857 857 857 856 856 855 855 854 853 852 851 850 849 849 848 848 847 846 845 844 844 843 842 842 841 841 840 839 838 838 837 836 835 834 833 832 830
814 821 820 826 830 828 832 832 835 839 836 833 830 830 831 833 831 829 832 833 835 836 834 834 833 833 835 837 840 841 840 839 840 841 842 843 845 846 848 849 850 851 852 853 853 854 855 855 856 856 856 857 857 857 857 857 857 857 856 856 856 856 856 855 855 855 854 853 852 852 851 850 849 848 848 847 846 845 844 844 843 842 841 841 841 840 839 839 838 837 836 836 835 834 832 831 829
813 819 819 826 832 831 834 834 837 838 831 828 827 827 829 829 827 827 830 832 833 832 829 831 832 833 834 835 839 841 839 838 840 841 842 844 845 847 848 849 850 851 852 852 853 853 854 854 855 855 855 856 856 856 856 856 856 856 855 855 855 855 855 854 854 854 853 853 852 851 850 850 849 848 847 847 846 845 844 843 842 841 841 841 840 839 839 838 837 836 836 835 834 833 832 830 829
812 816 818 824 831 831 833 833 836 836 827 826 826 826 828 826 826 828 828 829 829 830 829 831 831 832 832 831 833 835 835 837 839 841 843 844 846 847 848 849 850 851 851 851 852 852 852 853 853 854 854 854 854 855 855 855 855 854 854 854 854 854 853 853 853 853 853 852 852 851 850 850 849 848 847 846 845 844 843 842 841 840 840 840 839 839 838 837 836 835 835 834 833 832 831 829 828
812 815 821 826 830 832 832 832 837 836 827 826 827 826 827 827 827 828 827 827 827 829 829 830 829 828 829 828 827 828 831 835 839 841 843 845 847 848 849 850 850 850 851 850 850 851 851 852 852 853 853 853 853 853 853 853 853 853 853 853 853 853 853 853 852 852 852 852 851 850 850 849 848 848 847 846 845 844 843 841 840 840 840 839 838 838 837 836 835 835 834 833 833 832 830 829 827
811 814 823 827 831 832 829 831 834 830 825 827 827 826 827 827 828 827 827 828 827 829 828 828 828 827 827 827 826 826 830 835 838 840 843 844 846 847 848 849 849 849 849 849 849 849 850 850 850 851 851 851 851 852 852 852 852 852 852 852 852 852 852 852 852 851 851 851 850 849 849 848 848 847 846 845 844 843 842 841 840 839 839 838 838 837 836 835 834 834 833 833 832 831 830 827 826
813 820 826 827 830 828 825 827 828 826 824 825 826 826 826 826 827 827 827 827 827 829 828 827 826 827 828 827 826 827 829 833 836 838 841 843 844 845 846 846 847 847 847 847 847 848 848 848 849 849 849 849 850 850 850 850 851 851 851 851 851 851 851 851 850 850 850 850 849 849 848 847 847 846 845 844 843 842 841 840 840 839 838 837 837 836 835 833 833 833 832 832 831 830 828 826 826
816 826 828 825 827 825 824 825 825 827 823 822 826 826 826 825 825 827 826 826 828 828 827 827 827 826 827 827 827 828 830 832 834 836 838 840 841 841 842 844 844 844 844 845 845 846 847 847 848 848 847 848 848 848 848 848 849 849 849 849 849 849 849 849 849 849 849 848 848 848 847 847 846 845 844 844 843 842 841 840 839 838 837 837 836 834 833 832 832 831 830 830 829 828 827 826 825
818 825 824 822 825 825 826 825 824 825 823 823 825 826 827 825 825 826 826 825 827 826 823 824 825 825 826 828 828 828 830 832 833 835 836 837 838 838 839 840 841 841 841 842 843 844 845 846 846 846 846 847 847 847 847 847 847 847 847 847 848 848 848 848 848 847 847 847 847 847 846 846 845 844 844 843 842 841 841 840 839 838 837 836 835 834 833 831 831 830 829 828 827 826 825 825 824
819 822 820 821 825 824 824 825 824 825 825 823 823 826 826 825 825 825 825 826 824 821 819 819 819 820 824 828 828 829 830 831 833 834 835 836 836 837 837 838 838 838 840 841 842 843 843 844 844 845 845 845 845 845 845 845 845 846 846 846 846 847 847 846 846 846 846 845 845 845 845 844 844 843 843 842 841 841 840 839 838 837 836 835 834 833 832 831 830 829 828 827 826 826 825 824 823
819 823 822 822 825 823 822 825 824 824 825 823 824 825 824 824 825 824 825 824 818 815 814 815 816 817 821 825 827 828 830 831 832 833 834 834 835 836 836 837 838 839 840 840 840 841 842 842 843 843 844 844 844 844 844 844 844 844 844 845 845 845 845 845 845 844 844 844 844 843 843 843 842 842 841 841 840 840 839 838 837 837 836 835 834 833 831 831 829 828 827 826 826 825 824 823 822
819 823 824 824 824 822 822 824 824 824 824 823 824 824 824 825 823 823 823 818 812 811 812 812 814 815 817 821 825 827 829 830 830 831 831 832 833 833 834 835 836 838 839 839 839 840 841 841 841 842 842 842 842 842 843 843 843 843 843 844 844 844 844 843 843 842 842 842 842 842 842 841 841 840 840 839 839 838 838 837 836 836 835 834 833 832 831 830 829 828 827 826 825 824 823 822 821
818 821 823 824 824 822 823 824 824 825 823 823 825 825 824 824 822 823 819 811 811 812 812 813 813 814 817 820 823 825 826 828 828 828 828 829 830 831 833 834 835 837 837 837 838 839 839 840 840 840 840 840 841 841 841 841 841 841 842 842 842 842 842 842 841 841 841 841 841 840 840 840 839 839 838 838 837 837 836 836 835 834 834 833 832 831 830 829 828 827 826 825 824 823 822 822 821
818 819 822 824 824 823 824 825 824 825 824 824 826 824 822 823 825 823 814 807 810 812 812 814 815 815 817 819 821 823 825 826 826 827 828 829 830 832 833 834 835 836 836 836 837 837 838 838 838 838 838 838 839 839 840 839 840 840 840 841 840 840 840 840 840 840 840 839 839 839 838 838 837 837 836 836 836 835 835 834 834 833 833 832 831 830 829 828 827 826 825 824 823 822 821 821 820
819 819 821 822 822 823 825 825 824 825 824 826 825 823 822 824 827 819 808 806 808 810 812 813 815 816 817 819 820 822 823 824 825 827 828 829 831 832 832 833 835 835 835 835 836 836 836 837 837 837 837 837 837 838 838 838 839 839 839 839 839 839 839 839 839 838 838 838 837 837 837 836 836 835 835 835 834 833 833 832 832 831 831 831 830 829 828 827 826 825 824 823 823 822 821 820 819
820 821 822 822 823 824 825 824 824 826 825 825 825 823 822 825 828 817 804 806 808 807 810 812 813 814 816 819 820 821 821 822 823 825 827 829 831 831 831 832 833 833 834 835 835 836 836 836 836 836 836 836 836 837 837 837 837 837 837 838 837 838 837 837 838 837 837 836 836 835 835 835 834 834 833 833 832 831 831 831 830 830 829 829 828 827 827 826 825 824 823 823 822 821 820 819 819
820 820 821 823 825 825 825 824 824 826 825 824 825 825 825 829 827 814 805 807 808 806 808 812 812 813 815 817 819 820 820 820 822 825 826 827 828 829 830 831 832 833 833 834 835 835 836 836 835 835 836 836 836 836 836 836 836 836 836 836 836 836 836 836 836 836 835 835 834 834 833 833 832 832 831 831 830 830 829 828 828 827 827 827 826 826 825 824 823 823 822 822 821 820 819 818 817
820 821 822 823 826 823 821 823 824 825 824 824 827 823 821 827 820 805 806 810 808 807 807 810 812 813 815 816 818 820 820 820 822 823 824 825 826 828 829 830 831 832 833 834 835 835 835 835 836 836 836 836 836 836 837 837 836 836 836 836 836 836 836 835 835 834 834 833 833 832 832 831 831 830 830 829 828 828 827 826 826 825 825 825 824 824 823 822 822 821 820 820 819 818 817 816 816
821 825 825 825 826 821 820 823 824 825 825 824 827 821 811 815 812 802 807 811 807 807 807 809 812 813 815 815 817 818 819 820 821 822 823 825 826 828 829 830 832 833 834 834 834 835 836 836 836 836 836 836 837 837 837 837 836 836 835 835 835 835 835 834 834 833 832 832 831 831 830 830 829 829 828 827 826 825 825 824 823 823 823 823 822 822 821 820 820 818 818 817 817 816 815 814 814
824 828 828 832 828 818 820 825 824 824 826 824 826 827 812 804 805 803 807 810 807 807 807 809 811 812 815 815 817 817 818 820 820 821 823 825 827 828 830 831 832 833 834 834 835 836 836 836 836 836 836 837 837 837 837 836 836 835 835 834 834 834 834 833 833 832 831 831 830 830 829 828 828 827 826 825 824 823 823 822 821 821 821 821 820 820 819 818 817 816 816 815 814 813 812 812 811
828 826 825 836 833 821 820 823 824 822 824 826 825 827 817 804 802 804 807 809 807 805 807 810 810 812 814 815 816 817 818 820 821 822 824 826 827 829 830 831 832 833 834 835 836 836 836 836 836 836 836 837 837 836 836 836 835 835 834 834 834 833 833 832 831 831 830 829 829 828 828 827 826 825 824 823 822 821 821 820 819 819 819 818 818 817 816 815 815 814 813 813 811 810 810 809 808
831 830 823 828 831 825 821 821 824 823 823 826 825 824 817 805 802 806 808 808 807 805 807 810 810 812 815 815 816 817 819 821 822 824 825 826 828 829 831 832 833 834 835 836 836 836 836 837 837 837 837 837 837 836 836 835 835 835 834 834 833 832 832 831 830 829 829 828 827 827 826 825 824 823 822 821 820 819 818 817 817 817 817 816 815 815 814 813 813 811 810 811 810 809 808 807 806
828 834 828 826 828 827 822 819 824 827 824 824 826 826 818 806 803 807 807 807 808 806 806 809 810 812 815 816 818 819 821 822 824 825 826 827 829 831 832 833 835 836 837 837 837 837 836 837 837 837 838 837 837 836 836 835 835 835 835 834 833 832 831 830 829 828 827 827 826 825 824 823 822 821 820 819 818 817 816 815 815 815 814 814 813 812 812 811 811 810 808 808 808 807 806 805 803
821 826 825 825 828 829 824 821 823 826 825 825 826 826 819 808 805 807 807 807 808 805 805 808 809 813 816 819 821 822 822 824 826 826 827 829 830 832 834 835 837 837 837 837 837 837 837 837 837 837 837 837 837 836 836 835 835 834 834 834 832 831 830 828 828 827 826 825 824 824 823 822 821 820 818 817 816 815 814 813 812 812 812 811 810 810 809 809 808 808 807 806 805 805 804 803 802
821 823 825 825 826 827 824 823 825 826 825 824 824 823 818 811 807 807 805 806 806 805 808 811 811 815 819 823 824 823 824 827 828 828 829 831 832 834 835 837 838 837 838 837 837 837 837 837 837 837 837 837 836 836 835 835 834 833 833 833 831 830 829 828 827 826 825 824 823 822 821 820 819 818 817 815 814 813 812 811 810 809 809 809 808 807 806 806 806 805 805 804 803 802 802 801 800
825 826 827 828 830 828 823 823 826 828 824 818 819 823 819 811 809 809 806 805 806 807 810 812 815 819 822 825 826 825 828 830 830 830 831 833 834 836 837 838 838 838 838 838 837 837 837 837 836 836 836 836 836 835 835 834 833 833 832 832 830 829 828 827 826 825 824 823 821 820 819 818 817 816 814 813 812 811 810 809 808 807 807 806 805 804 804 804 804 803 802 802 801 800 799 799 799
827 827 828 830 832 829 824 825 827 828 825 817 818 823 816 811 811 810 809 806 806 808 810 814 818 822 825 826 828 829 830 832 832 832 833 835 836 837 838 838 838 838 839 838 838 838 837 837 836 836 836 836 835 835 835 834 833 832 832 831 830 828 827 826 825 823 822 821 820 819 817 816 815 813 812 811 810 808 807 806 805 804 804 803 802 802 801 801 801 801 800 799 799 798 797 797 797
827 830 832 830 831 830 825 828 828 827 825 818 818 821 815 814 815 813 812 808 811 813 812 816 820 823 827 829 830 831 832 834 834 835 836 836 838 839 839 839 839 839 839 839 838 838 837 837 837 836 836 836 836 835 835 834 833 833 832 830 829 827 825 824 823 822 820 819 818 817 815 814 812 811 810 808 807 806 805 804 803 802 801 800 800 799 799 798 798 798 798 797 797 796 795 795 795
827 829 831 827 830 831 823 824 827 825 826 822 821 822 819 817 814 813 817 815 818 820 818 822 824 825 829 831 832 833 833 835 836 837 838 838 839 840 840 840 840 840 839 839 839 838 838 837 837 837 837 836 836 836 835 834 833 832 831 829 827 825 824 823 821 820 818 817 815 814 813 811 810 808 807 806 805 804 802 801 800 799 798 798 797 796 795 795 795 795 796 795 795 794 793 792 793
827 827 829 826 826 829 825 827 829 823 825 827 822 817 815 817 815 816 822 822 822 824 824 827 829 830 833 833 834 835 835 836 836 838 839 840 841 842 842 842 841 840 839 840 840 839 839 838 838 838 838 837 837 836 835 834 832 831 829 827 826 824 822 821 819 817 816 814 813 811 810 809 808 806 805 803 802 801 800 798 797 796 795 795 794 793 792 792 792 792 793 792 792 792 790 789 790
828 824 826 826 825 828 829 831 828 820 820 824 823 817 814 818 819 820 824 826 828 829 829 832 834 834 834 834 836 836 837 837 838 840 841 842 843 843 843 842 841 841 841 841 841 840 840 839 839 839 838 837 837 836 834 833 831 829 827 825 823 822 820 819 817 815 813 812 810 809 808 807 805 804 802 801 799 798 796 795 794 793 792 792 791 790 789 789 789 789 789 789 789 789 788 787 787
828 825 829 832 831 831 831 830 828 823 820 824 828 825 819 817 815 823 831 832 834 835 834 836 836 836 836 837 838 838 839 839 839 841 843 844 844 843 843 843 842 842 842 843 842 841 841 840 840 839 838 837 836 835 834 832 831 829 827 825 823 821 819 817 816 814 812 810 808 806 805 804 803 801 799 798 797 795 793 792 791 790 789 788 787 786 786 785 785 785 785 785 785 785 786 784 783
826 831 835 833 831 832 832 832 831 830 828 828 831 829 823 818 818 829 836 835 837 838 837 838 838 838 839 839 840 840 840 841 841 843 844 845 844 844 845 844 844 845 844 844 843 842 841 840 840 839 838 837 836 835 834 832 830 828 826 825 823 821 819 816 814 813 810 808 806 804 803 801 800 799 797 795 794 792 791 789 788 786 785 784 784 783 782 781 781 781 781 782 781 781 782 781 779
827 835 839 835 834 834 835 835 833 838 835 822 824 830 823 817 823 835 837 836 840 840 839 840 839 840 841 842 842 842 842 842 842 844 845 846 846 846 847 846 846 846 846 845 844 843 842 841 840 839 838 837 836 835 833 832 829 827 825 823 822 820 818 816 813 811 809 807 804 802 801 799 797 796 794 792 791 789 788 786 784 783 781 780 780 779 778 777 777 777 777 777 777 777 777 777 776
831 838 839 838 840 838 837 837 835 839 833 814 816 827 818 812 823 833 834 836 840 840 840 841 841 843 843 844 844 843 843 844 844 846 847 848 848 848 848 847 847 847 846 846 845 844 842 841 840 839 838 837 836 835 833 830 828 826 824 822 820 818 816 814 812 809 807 805 802 800 798 796 794 792 791 789 788 786 784 783 781 779 777 776 775 775 774 773 773 772 772 773 773 773 773 773 772
835 836 831 830 837 840 840 842 840 833 823 814 821 828 821 814 819 825 828 832 835 838 841 842 843 845 845 845 845 845 846 846 847 848 849 849 850 849 849 848 848 847 847 846 845 844 843 842 841 840 839 837 835 833 831 829 827 825 823 821 819 817 815 812 810 807 805 802 800 797 795 793 791 789 788 786 785 783 781 779 777 775 774 772 771 770 770 769 769 768 768 768 768 769 769 769 768
834 832 828 823 828 834 834 837 837 826 815 817 826 830 824 816 814 822 830 833 835 837 839 842 844 846 847 847 848 849 849 849 850 850 851 851 851 850 850 849 849 849 848 847 846 846 845 843 842 839 837 836 834 832 830 827 825 824 822 820 818 816 814 811 809 806 803 801 798 795 793 791 789 787 785 784 782 781 779 776 774 772 770 768 767 766 765 765 765 764 764 764 763 764 764 765 764
832 829 829 826 824 826 823 824 829 824 816 820 827 826 821 818 821 829 834 835 837 839 840 842 845 846 848 850 851 852 852 852 853 853 854 854 853 853 852 851 851 851 850 849 848 847 845 844 842 839 837 835 833 831 829 827 825 823 821 819 818 815 813 811 808 806 803 801 798 795 792 790 787 785 784 782 780 778 776 774 772 769 767 765 763 761 761 760 760 759 759 758 758 758 758 759 759
831 828 829 829 829 830 825 826 832 826 817 823 830 826 817 819 829 834 836 839 841 843 844 845 847 850 852 853 853 853 854 855 856 856 856 856 856 855 855 854 854 853 852 851 849 848 846 844 842 840 838 835 833 830 828 826 824 822 821 819 817 815 813 811 808 806 803 800 798 795 793 790 787 784 782 780 778 776 774 771 769 766 763 761 759 757 756 755 755 754 753 752 751 752 752 752 752
835 835 834 831 830 832 830 826 827 824 824 829 828 824 819 822 834 841 843 846 847 847 849 850 852 854 854 854 854 854 856 857 858 858 858 858 858 857 857 857 856 855 854 852 851 849 847 845 842 839 836 833 831 829 827 825 823 821 820 818 816 814 812 810 808 806 803 800 798 795 792 789 786 783 780 778 776 774 771 769 766 763 760 758 755 753 751 750 750 749 747 746 745 745 746 746 745
838 841 835 832 831 832 832 833 836 837 840 836 825 826 833 833 841 849 849 847 849 849 851 853 854 855 855 856 856 856 857 859 860 860 860 860 860 860 859 859 858 856 855 853 851 849 846 843 840 837 834 832 830 828 826 825 823 821 819 817 816 814 812 810 807 805 802 799 796 793 789 787 784 782 779 776 774 772 769 766 763 760 758 755 752 750 747 745 744 743 741 740 740 740 740 740 740
834 837 831 835 841 837 832 838 846 848 844 834 824 829 840 841 843 851 850 847 850 851 852 855 857 857 857 858 858 858 859 860 861 861 861 862 862 861 860 859 858 856 855 853 850 847 844 841 838 836 834 832 830 828 826 824 822 820 819 817 816 814 811 808 805 803 800 797 794 791 787 785 783 781 778 775 773 770 768 765 761 758 756 753 750 747 745 742 740 738 737 737 736 736 736 735 735
832 833 834 839 843 841 841 842 841 843 842 833 827 831 838 840 842 848 851 850 852 854 855 857 858 858 859 860 859 859 860 861 862 862 862 862 862 861 859 858 857 856 854 852 849 846 843 840 838 836 834 832 830 828 826 824 822 820 818 817 815 813 810 807 804 801 798 795 792 789 787 785 782 780 777 774 771 768 766 763 760 757 754 752 749 746 744 741 738 736 734 733 733 733 733 731 731
839 838 840 839 836 834 841 843 837 840 844 837 833 836 837 838 841 846 850 851 854 857 859 860 861 861 862 862 860 860 861 861 862 862 862 862 861 860 859 858 857 855 853 850 848 845 842 839 837 835 833 832 829 827 825 823 822 820 818 816 814 811 809 806 803 800 796 793 791 789 787 784 781 779 776 773 769 767 764 761 758 756 753 750 747 745 742 739 736 733 731 729 728 729 728 727 726
844 843 842 841 839 837 838 842 840 841 843 841 837 832 832 840 846 848 851 854 856 859 861 862 863 864 863 862 861 861 861 862 862 863 863 862 861 860 859 857 856 854 852 849 846 842 839 836 834 833 831 829 827 825 823 822 820 819 817 814 812 809 807 804 801 797 795 793 791 788 786 783 780 777 774 771 768 765 762 759 757 754 751 748 745 742 740 737 734 731 728 726 724 724 723 721 721
838 838 838 837 839 841 841 843 845 842 838 841 840 833 836 848 852 851 854 857 858 860 862 864 864 864 863 862 862 862 862 863 863 864 863 863 861 860 859 857 856 854 851 847 843 839 837 835 833 831 829 827 825 823 822 821 819 817 815 812 809 807 805 802 799 796 794 792 790 787 784 780 777 774 771 768 765 763 760 757 754 751 748 745 742 739 736 734 732 728 725 722 720 719 717 716 716
836 834 834 835 838 840 841 844 850 849 842 843 843 837 842 853 853 853 858 859 860 862 863 864 864 864 864 862 863 863 863 864 864 864 863 862 861 859 858 856 854 851 848 844 842 839 837 835 833 832 830 828 825 823 822 820 818 816 813 810 807 805 803 800 798 796 793 791 788 785 782 778 774 771 769 766 763 760 757 754 751 747 745 742 738 736 733 730 727 724 722 719 716 714 712 711 711